Location: Bazinghen
(50.8246°N, 1.6616°E)
Time: 02:18:15
(UTC+00:00)

Cosmos 2061 Rocket - Pass Details

Date: 09 April 2020
Orbit: 967 x 1012 km, 82.9° (Epoch: 03 June)

Event Time Altitude Azimuth Distance (km) Brightness Sun altitude
Rises 23:22:25 0° 350° (N) 3,686 8.2 -30.7°
Reaches altitude 10° 23:24:56 10° 352° (N) 2,740 7.2 -30.8°
Enters shadow 23:30:55 77° 41° (NE) 1,015 4.0 -30.9°
